Anchorage, AK

7:25 AM AKST on December 07, 2016 (GMT -0900)
Merrill

Weather History for PAMR - March, 2013

Change the Weather History Date:

Wednesday, March 6, 2013

  Actual Average Record
Temperature  
Mean Temperature 28 °F -  
Max Temperature 36 °F 30 °F 44 °F (2008)
Min Temperature 21 °F 13 °F -7 °F (2007)
Degree Days  
Heating Degree Days 36    
Moisture  
Dew Point 21 °F    
Average Humidity 74    
Maximum Humidity 96    
Minimum Humidity 52    
Precipitation  
Precipitation 0.00 in - - ()
Sea Level Pressure  
Sea Level Pressure 29.92 in    
Wind  
Wind Speed 1 mph (NNE)    
Max Wind Speed 6 mph    
Max Gust Speed -    
Visibility 10 miles    
Events      
Averages and records for this station are not official NWS values.
T = Trace of Precipitation, MM = Missing Value Source: NWS Daily Summary

Daily Weather History Graph

Daily Weather History Graph

Search for Another Location

Airport or City:

Trip Planner

Search our weather history database for the weather conditions in past years. The results will help you decide how hot, cold, wet, or windy it might be!

Date:

Astronomy

Mar. 06, 2013 Rise Set
Actual Time 7:43 AM AKST 6:39 PM AKST
Civil Twilight 7:00 AM AKST 7:22 PM AKST
Nautical Twilight 6:10 AM AKST 8:12 PM AKST
Astronomical Twilight 5:18 AM AKST 9:04 PM AKST
Moon 5:16 AM AKST (3/6) 12:19 PM AKST (3/6)
Length of Visible Light 12h 22m
Length of Day
10h 55m
Waning Crescent, 28% of the Moon is Illuminated
Mar 6
Waning Crescent
Mar 11
New
Mar 19
First Quarter
Mar 27
Full
Apr 2
Last Quarter

Hourly Weather History & Observations

Time (AKST) Temp. Windchill Dew Point Humidity Pressure Visibility Wind Dir Wind Speed Gust Speed Precip Events Conditions
12:53 AM 24.1 °F - 23.0 °F 96% 29.98 in 10.0 mi Calm Calm - N/A   Overcast
1:53 AM 23.0 °F - 21.0 °F 92% 29.96 in 9.0 mi Calm Calm - N/A   Overcast
3:53 AM 21.9 °F - 21.0 °F 96% 29.95 in 9.0 mi Calm Calm - N/A   Overcast
4:53 AM 24.1 °F - 21.0 °F 88% 29.96 in 10.0 mi Calm Calm - N/A   Overcast
5:53 AM 23.0 °F - 21.0 °F 92% 29.96 in 10.0 mi Calm Calm - N/A   Overcast
6:53 AM 25.0 °F 19.3 °F 21.9 °F 88% 29.94 in 10.0 mi NE 4.6 mph - N/A   Mostly Cloudy
7:53 AM 26.1 °F 21.9 °F 23.0 °F 88% 29.94 in 10.0 mi NNW 3.5 mph - N/A   Overcast
8:53 AM 26.1 °F - 21.9 °F 84% 29.94 in 10.0 mi Calm Calm - N/A   Clear
9:53 AM 26.1 °F 21.9 °F 21.9 °F 84% 29.94 in 10.0 mi NE 3.5 mph - N/A   Mostly Cloudy
10:53 AM 28.9 °F - 21.0 °F 72% 29.96 in 10.0 mi Calm Calm - N/A   Overcast
11:53 AM 30.0 °F 24.1 °F 21.0 °F 69% 29.96 in 10.0 mi North 5.8 mph - N/A   Overcast
12:53 PM 32.0 °F 28.7 °F 19.0 °F 59% 29.96 in 10.0 mi NNE 3.5 mph - N/A   Overcast
1:53 PM 33.1 °F 30.0 °F 18.0 °F 54% 29.93 in 10.0 mi NNW 3.5 mph - N/A   Overcast
2:53 PM 34.0 °F 28.8 °F 19.0 °F 54% 29.94 in 10.0 mi North 5.8 mph - N/A   Overcast
3:53 PM 35.1 °F 32.2 °F 19.0 °F 52% 29.93 in 10.0 mi NE 3.5 mph - N/A   Overcast
4:53 PM 36.0 °F 31.1 °F 19.9 °F 52% 29.89 in 10.0 mi North 5.8 mph - N/A   Scattered Clouds
5:53 PM 36.0 °F - 21.0 °F 55% 29.90 in 10.0 mi Calm Calm - N/A   Mostly Cloudy
6:53 PM 34.0 °F - 21.0 °F 59% 29.88 in 10.0 mi Calm Calm - N/A   Mostly Cloudy
7:53 PM 33.1 °F - 21.9 °F 64% 29.89 in 10.0 mi Calm Calm - N/A   Overcast
8:53 PM 30.0 °F - 21.0 °F 69% 29.88 in 10.0 mi Calm Calm - N/A   Mostly Cloudy
9:53 PM 28.0 °F - 21.9 °F 78% 29.86 in 10.0 mi Calm Calm - N/A   Mostly Cloudy
10:53 PM 24.1 °F - 19.9 °F 84% 29.85 in 10.0 mi Calm Calm - N/A   Mostly Cloudy
11:53 PM 25.0 °F - 19.9 °F 81% 29.84 in 10.0 mi Calm Calm - N/A   Mostly Cloudy